SCP
0 0 0 0 0 0 0 0 0 0 0 0 0 0 0 0 0 0 0 0 0 0 0 0 0 0 0 0 0 0 0 0 0 0 0 0 0 0 0 0 0 0 0 0
0 0 0 0 0 0 -0 -0 -0 0 0 0 0 0 0 0 0 0 0 0 0 0 0 0 0 0 0 0 0 0 0 0 0 0 0 0 0 0 0 0 0 0 0 0
0 0 0 0 0 0 -0 -0 -0 -0 0 0 0 0 0 0 0 0 0 0 0 0 0 0 0 0 0 0 0 0 0 0 0 0 0 0 0 0 0 0 0 0 0 0
0 0 0 0 0 0 -0 -0 -0 -0 0 0 0 0 0 0 0 0 0 0 0 0 0 0 0 0 0 0 0 0 0 0 0 0 0 0 0 0 0 0 0 0 0 0
0 0 0 0 0 0 0 0 0 0 0 0 0 0 0 0 0 0 0 0 0 0 0 0 0 0 0 0 0 0 0 0 0 0 0 0 0 0 0 0 0 0 0 0
0 0 0 0 0 0 0 0 0 0 0 0 0 0 0 0 0 0 0 0 0 0 0 0 0 0 0 0 0 0 0 0 0 0 0 0 0 0 0 0 0 0 0 0
0 0 0 0 0 0 0 0 0 0 0 0 0 0 0 0 0 0 0 0 0 0 0 0 0 0 0 0 0 0 0 0 0 0 0 0 0 0 0 0 0 0 0 0
0 0 0 0 0 0 0 0 0 0 0 0 0 0 0 0 0 0 0 0 0 0 0 0 0 0 0 0 0 0 0 0 0 0 0 0 0 0 0 0 0 0 0 0
0 0 0 0 0 0 0 0 0 0 0 0 0 0 0 0 0 0 0 0 0 0 0 0 0 0 0 0 0 0 0 0 0 0 0 0 0 0 0 0 0 0 0 0
0 0 0 0 0 -0 0 0 0 0 0 0 0 0 0 0 0 0 0 0 0 0 0 0 0 0 0 0 0 0 0 0 0 0 0 0 0 0 0 0 0 0 0 0
0 0 0 0 0 -0 0 0 0 0 0 0 0 0 0 0 0 0 0 0 0 0 0 0 0 0 0 0 0 0 0 0 0 0 0 0 0 0 0 0 0 0 0 0
0 0 0 0 0 0 0 0 0 0 0 0 0 0 0 0 0 0 0 0 0 0 0 0 0 0 0 0 0 0 0 0 0 0 0 0 0 0 0 0 0 0 0 0
0 0 0 0 0 0 0 0 0 0 0 0 0 0 0 0 0 0 0 0 0 0 0 0 0 0 0 0 0 0 0 0 0 0 0 0 0 0 0 0 0 0 0 0
0 0 0 0 0 0 0 0 0 0 0 0 0 0 0 0 0 0 0 0 0 0 0 0 0 0 0 0 0 0 0 0 0 0 0 0 0 0 0 0 0 0 0 0
0 0 0 0 0 0 0 0 0 0 0 0 0 0 0 0 0 0 0 0 0 0 0 0 0 0 0 0 0 0 0 0 0 0 0 0 0 0 0 0 0 0 0 0
0 0 0 0 0 0 0 0 0 0 0 0 0 0 0 0 0 0 0 0 0 0 0 0 0 0 0 0 0 0 0 0 0 0 0 0 0 0 0 0 0 0 0 0
0 0 0 0 0 0 0 0 0 0 0 0 0 0 0 0 0 0 0 0 0 0 0 0 0 0 0 0 0 0 0 0 0 0 0 0 0 0 0 0 0 0 0 0
0 0 0 0 0 0 0 0 0 0 0 0 0 0 0 0 0 -0 -0 -0 0 0 0 0 0 0 0 0 0 0 0 0 0 0 0 0 0 0 0 0 0 0 0 0
0 0 0 0 0 0 0 0 0 0 0 0 0 0 0 0 0 0 0 -0 0 0 0 0 0 0 0 0 0 0 0 0 0 0 0 0 0 0 0 0 0 0 0 0
0 0 0 0 0 0 0 0 0 0 -0 0 0 0 0 0 0 0 0 -0 0 0 0 0 0 0 0 0 0 0 0 0 0 0 0 0 0 0 0 0 0 0 0 0
0 0 0 0 0 0 0 0 0 0 -0 -0 -0 0 0 0 0 0 0 0 0 0 0 0 0 0 0 0 0 0 0 0 0 0 0 0 0 0 0 0 0 0 0 0
0 0 0 0 0 0 0 0 0 0 0 0 0 0 0 0 0 0 0 0 0 0 0 0 0 0 0 0 0 0 0 0 0 0 0 0 0 0 0 0 0 0 0 0
0 0 0 0 0 0 0 0 0 0 0 0 -0 0 0 0 0 0 0 0 0 0 0 0 0 0 0 0 0 0 0 0 0 0 0 0 0 0 0 0 0 0 0 0
0 0 0 0 0 0 0 0 0 0 0 0 0 0 0 0 0 0 0 0 0 0 0 0 0 0 0 0 0 0 0 0 0 0 0 0 0 0 0 0 0 0 0 0
0 0 0 0 0 0 0 0 0 0 0 0 0 0 0 0 0 0 0 0 0 0 0 0 0 0 0 0 0 0 0 0 0 0 0 0 0 0 0 0 0 0 0 0
0 0 0 0 0 0 0 0 0 0 0 0 0 0 0 0 0 0 0 0 0 0 0 0 0 0 0 0 0 0 0 0 0 0 0 0 0 0 0 0 0 0 0 0
0 0 0 0 0 0 0 0 0 0 0 0 0 0 0 0 0 0 0 0 0 0 0 0 0 0 0 0 0 0 0 0 0 0 0 0 0 0 0 0 0 0 0 0
Wind_Speed
3 3 2 3 4 2 1 2 4 5 5 6 5 6 7 7 7 8 8 9 10 9 8 9 8 8 8 8 8 7 6 5 5 5 4 4 3 3 3 3 3 2 2 2
3 3 3 4 5 3 1 1 2 4 6 4 5 5 6 7 7 8 9 10 10 10 10 10 9 9 8 8 8 7 6 6 5 5 4 4 4 3 3 3 3 2 2 2
3 5 4 4 3 1 1 1 2 4 5 5 6 7 7 7 7 7 9 10 10 10 9 9 9 8 8 8 8 7 6 6 6 5 5 4 4 3 3 3 3 2 3 2
2 4 3 5 1 1 1 2 2 3 4 5 6 8 6 4 5 7 9 10 9 9 9 9 8 7 7 7 6 6 6 6 6 5 5 4 4 4 4 3 3 3 3 3
0 1 6 5 2 1 2 4 2 3 5 6 6 5 4 3 5 7 8 8 8 8 8 8 8 7 7 6 5 6 6 7 6 5 5 4 4 4 4 4 3 3 3 3
1 1 5 6 3 2 0 5 3 2 5 6 5 4 6 6 8 8 8 7 8 8 7 7 8 6 6 6 6 6 7 7 6 5 5 5 5 5 4 3 3 3 3 3
2 3 8 6 3 2 1 6 4 3 4 4 3 5 8 9 8 8 8 8 8 7 7 7 8 6 5 6 6 7 7 7 5 5 4 4 4 4 4 3 3 3 3 3
3 3 8 2 2 3 6 3 3 4 4 5 6 7 8 8 9 9 9 9 8 7 8 8 7 6 6 7 7 7 6 6 5 5 4 4 4 4 3 2 3 3 3 2
7 8 5 3 4 4 3 3 4 4 5 5 6 7 8 8 8 8 8 8 7 7 8 7 7 6 6 7 7 7 6 6 5 5 4 4 4 4 3 2 2 2 2 2
4 6 5 4 4 3 3 4 5 5 5 5 6 7 7 7 8 8 8 8 7 7 8 8 8 7 7 7 7 6 6 6 5 5 4 4 3 3 3 2 2 2 2 2
5 6 4 4 5 5 4 4 4 5 4 5 5 6 7 7 7 7 7 7 6 6 7 8 8 8 7 7 7 6 6 6 6 5 4 4 3 3 3 3 3 3 3 2
6 5 4 6 5 4 4 5 5 5 6 5 5 6 6 6 6 6 7 7 7 7 8 8 8 8 7 7 6 6 6 6 4 4 4 3 3 4 5 5 6 5 4 4
6 4 4 5 4 2 4 5 5 5 5 6 5 5 6 6 6 6 6 7 7 7 7 7 7 7 7 7 6 5 5 5 4 4 4 4 3 3 4 5 5 5 5 4
4 3 4 4 4 4 4 4 4 4 4 4 4 5 5 5 5 6 6 7 7 7 7 7 7 7 7 6 6 6 5 6 5 4 3 3 3 3 3 3 3 4 5 6
3 3 4 4 3 3 3 3 3 4 4 4 4 4 5 5 6 6 6 6 6 6 7 7 7 8 7 6 6 5 5 4 4 4 4 3 3 3 3 3 3 3 3 5
4 3 3 3 4 4 3 3 4 5 5 5 5 5 5 5 6 6 6 6 6 7 7 7 7 7 6 5 6 4 4 7 6 4 4 3 3 3 3 3 3 3 3 4
3 4 3 4 5 5 4 4 4 5 5 5 6 6 5 5 6 6 6 6 6 6 6 6 7 7 6 5 5 4 4 5 8 5 3 3 3 3 3 3 3 3 3 4
4 5 4 4 4 5 5 4 4 4 5 5 5 5 5 5 6 7 7 7 6 6 7 6 6 6 5 5 4 3 3 3 3 3 3 3 3 2 2 2 3 3 3 4
3 4 4 4 4 3 4 4 4 4 5 4 5 5 5 6 6 7 6 6 6 7 7 7 10 7 6 6 6 3 3 3 3 3 3 4 4 3 3 3 3 3 3 3
3 3 3 4 3 3 4 4 4 4 4 4 4 5 5 6 6 6 6 5 5 5 7 8 7 6 5 5 6 3 3 3 3 3 3 3 3 3 3 3 3 3 3 3
3 3 3 4 4 4 4 4 4 4 5 4 4 5 6 6 6 5 4 5 6 6 6 8 5 4 4 5 6 3 2 3 3 3 3 3 3 3 3 3 3 3 3 3
3 3 3 3 4 4 4 4 4 4 5 4 5 5 5 6 6 5 4 5 6 9 6 4 4 6 7 6 3 2 3 3 3 2 2 3 3 3 3 3 3 3 3 3
3 3 3 3 4 4 4 4 4 4 4 5 5 5 5 5 4 4 5 4 4 8 6 4 7 9 10 4 3 2 3 3 3 3 3 3 3 3 3 3 3 3 3 3
3 3 3 3 3 3 4 5 4 4 5 5 5 5 4 4 4 3 4 8 9 9 5 7 10 10 8 3 3 3 3 3 3 3 3 3 3 3 3 3 3 3 3 4
3 3 3 3 3 3 4 5 4 4 4 4 5 5 4 3 4 4 4 5 8 8 4 7 10 9 5 3 3 3 3 3 3 3 3 3 3 3 3 3 3 3 3 3
3 3 3 3 3 3 3 3 3 3 4 4 4 4 4 3 4 4 3 4 6 7 5 4 5 6 3 3 3 3 3 4 5 4 3 3 3 3 3 3 4 4 3 4
2 2 3 3 3 3 3 3 3 4 4 4 5 4 4 4 4 3 4 4 4 4 4 4 4 3 4 3 3 3 3 3 3 4 4 3 3 4 4 4 4 4 4 4
Wind_Direction
254 274 304 320 323 342 107 197 214 256 262 296 313 310 315 324 330 337 343 347 345 342 339 339 339 338 339 337 339 337 333 325 316 310 307 306 301 300 299 292 280 268 258 268
300 298 329 332 336 329 323 309 281 299 292 301 309 315 325 329 332 335 338 337 336 335 335 335 333 332 335 334 334 333 331 326 321 319 319 312 305 300 298 299 293 276 260 259
297 321 345 320 311 318 276 281 235 262 275 315 325 322 318 317 323 327 329 329 329 328 326 325 323 325 327 326 328 330 327 325 328 328 324 319 315 313 301 297 289 269 261 253
302 5 295 254 300 325 259 274 278 275 294 306 302 300 294 304 323 326 326 325 324 322 322 321 320 323 323 324 327 327 327 325 323 321 314 310 308 305 296 289 276 263 260 256
58 295 280 291 304 301 257 282 275 280 301 313 318 314 300 318 332 317 313 313 313 313 314 316 317 320 323 323 326 327 325 320 316 313 307 305 298 293 289 286 284 272 260 255
135 227 259 265 288 295 120 285 284 289 299 313 335 325 299 321 322 316 316 316 316 318 320 321 320 320 322 322 325 321 317 314 311 308 302 294 287 288 288 283 281 279 280 259
197 232 264 259 281 57 138 265 296 283 286 295 279 258 286 307 311 313 313 316 320 323 324 320 320 322 321 321 316 312 315 317 315 310 301 292 287 284 280 276 275 271 275 268
175 216 260 244 127 185 231 269 282 282 282 278 279 288 298 306 311 317 320 323 326 325 322 324 329 330 326 320 317 320 321 321 319 315 306 302 295 292 284 262 258 259 264 270
196 219 243 196 203 233 227 251 266 269 276 280 288 295 302 308 310 314 317 320 323 323 322 328 333 332 324 320 324 327 328 326 320 314 309 306 298 290 285 263 242 248 248 250
253 260 259 252 254 265 248 252 265 267 272 275 282 291 299 304 308 312 316 318 322 325 326 327 329 330 323 323 328 331 328 326 326 322 318 315 306 294 285 267 247 240 240 243
256 274 297 270 248 254 267 274 279 281 272 269 278 288 293 297 301 306 312 317 319 320 318 320 325 327 326 330 332 331 329 328 328 326 321 318 313 306 297 283 266 252 236 236
237 238 231 260 263 258 259 266 270 278 285 285 275 281 290 293 295 300 307 313 317 318 318 318 322 324 325 328 331 330 330 330 328 328 326 325 326 331 334 321 322 307 291 280
241 256 244 263 275 267 257 267 274 273 274 285 286 279 285 290 295 301 307 313 313 311 311 313 316 319 322 327 330 330 326 325 327 329 331 331 333 333 332 341 346 349 342 320
260 282 274 273 275 286 284 286 288 290 287 286 291 296 295 295 301 306 306 306 308 311 313 314 315 316 319 325 327 328 325 323 326 326 328 328 329 327 328 337 344 350 352 350
275 259 257 279 291 299 304 309 310 305 304 307 306 306 307 305 303 302 304 309 314 316 317 318 318 317 320 324 324 323 324 324 325 327 326 328 330 334 341 343 341 339 340 341
295 288 279 284 289 297 305 303 298 300 305 306 307 305 302 299 300 303 310 315 317 315 315 314 313 313 320 323 322 322 322 326 331 330 328 330 339 345 346 347 346 346 343 338
282 293 294 298 294 292 288 283 282 290 298 298 298 300 305 309 311 313 315 315 307 302 309 314 312 316 322 320 318 316 318 321 326 326 331 336 341 343 342 343 344 341 338 342
242 254 260 264 275 286 294 295 292 293 291 293 300 305 307 308 306 307 310 315 317 317 319 318 318 321 321 319 318 314 317 323 330 333 336 340 337 334 338 338 334 331 338 348
265 267 274 277 275 276 288 295 298 298 299 303 304 300 296 295 297 301 306 315 320 318 320 323 327 331 328 327 331 327 329 332 335 336 336 335 341 345 345 342 343 344 342 342
280 281 284 289 291 283 285 291 296 299 299 301 301 301 302 302 302 304 305 302 298 297 307 319 322 321 323 327 335 331 330 332 333 333 336 339 339 339 339 337 338 337 337 338
276 282 286 289 291 290 284 286 291 294 298 297 290 291 293 298 302 303 303 303 304 309 314 320 325 323 323 327 329 333 332 328 329 329 331 332 331 330 330 330 329 329 329 329
266 272 280 287 291 293 293 291 286 286 293 295 291 291 296 301 305 301 286 282 301 318 322 315 317 323 328 330 332 332 327 325 324 326 326 323 322 321 321 321 320 320 318 316
264 268 275 280 282 285 295 295 288 286 287 290 292 293 291 291 295 299 304 306 309 317 322 315 322 326 329 337 338 332 329 326 322 320 318 317 316 313 312 311 309 308 306 305
268 274 279 286 291 293 295 295 293 290 286 285 286 287 290 295 293 278 281 306 316 319 319 321 327 330 334 344 335 329 322 316 312 310 308 307 307 306 305 303 301 300 298 296
269 273 278 287 287 283 286 294 299 298 297 296 298 296 290 280 282 296 300 303 312 320 320 323 327 330 335 329 324 317 312 309 308 307 303 303 301 299 297 296 294 293 293 291
265 269 271 268 268 277 286 292 296 299 304 306 306 303 300 296 291 294 299 304 308 316 319 313 314 319 318 314 311 308 306 309 314 314 308 303 299 295 294 293 292 288 288 286
284 286 287 287 286 285 287 290 293 298 300 298 298 302 305 307 305 305 305 306 308 309 308 308 309 309 308 307 305 303 301 300 300 300 300 297 295 292 292 289 286 285 284 283